�������l�o���
Date,Time,MP-1(��Sv/h),MP-2(��Sv/h),MP-3(��Sv/h),MP-4(��Sv/h),MP-5(��Sv/h),MP-6(��Sv/h),MP-7(��Sv/h),MP-8(��Sv/h),����,����(m/s),���J
2020/09/13,00:00,0.649,0.915,0.590,1.133,0.793,0.376,0.655,0.620,�k�k��,9.0,��
2020/09/13,00:10,0.648,0.914,0.590,1.132,0.795,0.376,0.655,0.618,�k�k��,9.1,�L
2020/09/13,00:20,0.651,0.916,0.592,1.134,0.795,0.377,0.657,0.619,�k�k��,7.7,��
2020/09/13,00:30,0.652,0.916,0.594,1.133,0.797,0.378,0.657,0.620,�k�k��,7.9,�L
2020/09/13,00:40,0.649,0.917,0.594,1.133,0.796,0.378,0.656,0.620,�k�k��,8.6,��
2020/09/13,00:50,0.649,0.919,0.595,1.135,0.796,0.377,0.657,0.620,�k�k��,8.3,��
2020/09/13,01:00,0.650,0.916,0.594,1.135,0.798,0.378,0.659,0.621,�k�k��,7.5,��
2020/09/13,01:10,0.651,0.918,0.593,1.134,0.800,0.377,0.657,0.621,�k�k��,8.1,��
2020/09/13,01:20,0.651,0.918,0.593,1.133,0.797,0.376,0.659,0.623,�k�k��,8.4,��
2020/09/13,01:30,0.651,0.916,0.592,1.137,0.797,0.376,0.660,0.622,�k�k��,8.8,��
2020/09/13,01:40,0.652,0.916,0.592,1.135,0.799,0.378,0.658,0.622,�k�k��,8.2,��
2020/09/13,01:50,0.651,0.919,0.591,1.136,0.797,0.377,0.658,0.622,�k��,9.0,��
2020/09/13,02:00,0.652,0.918,0.593,1.138,0.800,0.377,0.658,0.624,�k�k��,8.0,��
2020/09/13,02:10,0.650,0.917,0.593,1.137,0.799,0.378,0.659,0.621,�k�k��,8.1,��
2020/09/13,02:20,0.652,0.918,0.593,1.139,0.799,0.376,0.658,0.623,�k�k��,8.0,��
2020/09/13,02:30,0.651,0.919,0.592,1.138,0.801,0.378,0.659,0.621,�k�k��,9.1,��
2020/09/13,02:40,0.653,0.919,0.594,1.138,0.801,0.377,0.660,0.623,�k��,7.8,��
2020/09/13,02:50,0.652,0.921,0.594,1.141,0.801,0.378,0.660,0.624,�k��,8.6,��
2020/09/13,03:00,0.651,0.921,0.594,1.139,0.802,0.377,0.658,0.623,�k�k��,7.6,��
2020/09/13,03:10,0.652,0.918,0.593,1.140,0.802,0.376,0.661,0.624,�k�k��,8.3,��
2020/09/13,03:20,0.652,0.919,0.595,1.141,0.802,0.377,0.661,0.623,�k�k��,9.2,��
2020/09/13,03:30,0.651,0.922,0.592,1.140,0.804,0.378,0.659,0.623,�k��,9.0,��
2020/09/13,03:40,0.650,0.921,0.593,1.140,0.804,0.378,0.661,0.624,�k�k��,8.0,��
2020/09/13,03:50,0.652,0.922,0.593,1.140,0.804,0.378,0.659,0.623,�k��,7.4,��
2020/09/13,04:00,0.653,0.921,0.594,1.141,0.802,0.377,0.660,0.623,�k�k��,7.3,��
2020/09/13,04:10,0.653,0.923,0.595,1.140,0.806,0.377,0.661,0.625,�k�k��,7.4,��
2020/09/13,04:20,0.654,0.925,0.594,1.140,0.805,0.377,0.662,0.622,�k�k��,7.4,��
2020/09/13,04:30,0.651,0.926,0.596,1.140,0.804,0.377,0.661,0.625,�k�k��,8.4,��
2020/09/13,04:40,0.651,0.924,0.595,1.145,0.802,0.377,0.661,0.625,�k�k��,6.8,��
2020/09/13,04:50,0.652,0.923,0.594,1.143,0.805,0.378,0.661,0.624,�k�k��,7.7,��
2020/09/13,05:00,0.653,0.925,0.595,1.142,0.806,0.379,0.662,0.624,�k�k��,7.6,��
2020/09/13,05:10,0.651,0.924,0.594,1.144,0.805,0.378,0.662,0.624,�k�k��,7.4,��
2020/09/13,05:20,0.652,0.926,0.596,1.143,0.806,0.378,0.659,0.624,�k�k��,6.7,��
2020/09/13,05:30,0.653,0.926,0.597,1.142,0.805,0.377,0.661,0.624,�k�k��,7.2,��
2020/09/13,05:40,0.653,0.925,0.596,1.142,0.805,0.378,0.662,0.625,�k�k��,7.0,��
2020/09/13,05:50,0.652,0.926,0.596,1.145,0.808,0.378,0.662,0.624,�k�k��,7.4,��
2020/09/13,06:00,0.655,0.928,0.595,1.144,0.806,0.377,0.663,0.624,�k�k��,7.5,��
2020/09/13,06:10,0.653,0.924,0.596,1.143,0.807,0.380,0.660,0.625,�k�k��,6.7,��
2020/09/13,06:20,0.653,0.926,0.597,1.143,0.809,0.378,0.662,0.625,�k�k��,7.1,��
2020/09/13,06:30,0.654,0.925,0.597,1.143,0.804,0.380,0.661,0.625,�k�k��,6.7,��
2020/09/13,06:40,0.654,0.926,0.596,1.144,0.808,0.379,0.662,0.626,�k�k��,7.6,��
2020/09/13,06:50,0.652,0.926,0.596,1.143,0.807,0.380,0.662,0.625,�k�k��,8.0,��
2020/09/13,07:00,0.654,0.926,0.597,1.144,0.807,0.378,0.663,0.626,�k�k��,6.7,��
2020/09/13,07:10,0.653,0.927,0.596,1.144,0.808,0.379,0.663,0.626,�k�k��,7.0,��
2020/09/13,07:20,0.653,0.925,0.596,1.146,0.808,0.378,0.663,0.625,�k�k��,7.0,��
2020/09/13,07:30,0.654,0.926,0.596,1.144,0.810,0.380,0.661,0.626,�k�k��,6.2,��
2020/09/13,07:40,0.656,0.928,0.598,1.145,0.809,0.380,0.664,0.625,�k�k��,6.0,��
2020/09/13,07:50,0.653,0.928,0.598,1.144,0.810,0.380,0.662,0.626,�k�k��,6.2,��
2020/09/13,08:00,0.654,0.926,0.599,1.146,0.809,0.379,0.663,0.626,�k�k��,6.9,��
2020/09/13,08:10,0.654,0.927,0.598,1.148,0.810,0.378,0.665,0.626,�k�k��,6.8,��
2020/09/13,08:20,0.652,0.929,0.597,1.146,0.810,0.378,0.662,0.625,�k�k��,6.9,��
2020/09/13,08:30,0.655,0.927,0.596,1.146,0.810,0.379,0.665,0.624,�k�k��,7.3,��
2020/09/13,08:40,0.653,0.928,0.598,1.145,0.812,0.380,0.666,0.624,�k�k��,6.5,��
2020/09/13,08:50,0.654,0.929,0.597,1.146,0.810,0.381,0.665,0.626,�k�k��,5.7,��
2020/09/13,09:00,0.656,0.929,0.597,1.146,0.811,0.381,0.663,0.626,�k�k��,5.6,��
2020/09/13,09:10,0.654,0.930,0.598,1.146,0.812,0.381,0.663,0.626,�k�k��,6.0,��
2020/09/13,09:20,0.657,0.929,0.598,1.145,0.812,0.380,0.665,0.626,�k�k��,5.3,��
2020/09/13,09:30,0.655,0.930,0.598,1.147,0.813,0.381,0.664,0.626,�k,4.1,��
2020/09/13,09:40,0.656,0.929,0.599,1.146,0.813,0.381,0.665,0.627,�k�k��,5.4,��
2020/09/13,09:50,0.658,0.932,0.600,1.148,0.814,0.380,0.665,0.626,�k�k��,5.9,��
2020/09/13,10:00,0.655,0.932,0.600,1.147,0.814,0.380,0.663,0.625,�k�k��,5.5,��
2020/09/13,10:10,0.655,0.931,0.600,1.148,0.815,0.380,0.666,0.625,�k�k��,5.2,��
2020/09/13,10:20,0.657,0.933,0.598,1.146,0.815,0.380,0.666,0.626,�k�k��,5.0,��
2020/09/13,10:30,0.656,0.933,0.601,1.148,0.815,0.380,0.665,0.625,�k�k��,4.4,��
2020/09/13,10:40,0.657,0.930,0.602,1.147,0.815,0.381,0.666,0.628,�k�k��,4.5,��
2020/09/13,10:50,0.657,0.933,0.601,1.150,0.815,0.380,0.664,0.625,�k,4.3,��
2020/09/13,11:00,0.659,0.935,0.601,1.149,0.815,0.381,0.667,0.627,�k�k��,4.6,��
2020/09/13,11:10,0.658,0.933,0.601,1.149,0.815,0.381,0.665,0.626,�k�k��,5.1,�L
2020/09/13,11:20,0.657,0.932,0.601,1.152,0.816,0.380,0.666,0.625,�k�k��,6.2,��
2020/09/13,11:30,0.658,0.933,0.601,1.149,0.815,0.382,0.666,0.625,�k,6.0,��
2020/09/13,11:40,0.659,0.934,0.602,1.149,0.815,0.381,0.666,0.626,�k,7.4,��
2020/09/13,11:50,0.659,0.934,0.601,1.152,0.815,0.381,0.666,0.624,�k,6.5,��
2020/09/13,12:00,0.658,0.933,0.601,1.148,0.814,0.381,0.666,0.626,�k,5.4,��
2020/09/13,12:10,0.657,0.933,0.602,1.151,0.816,0.382,0.666,0.627,�k,6.6,��
2020/09/13,12:20,0.659,0.933,0.600,1.150,0.815,0.381,0.666,0.626,�k,7.5,��
2020/09/13,12:30,0.659,0.934,0.602,1.150,0.815,0.380,0.667,0.628,�k,7.6,��
2020/09/13,12:40,0.660,0.934,0.601,1.150,0.817,0.381,0.666,0.626,�k,8.2,��
2020/09/13,12:50,0.659,0.934,0.603,1.147,0.816,0.382,0.666,0.627,�k,8.0,��
2020/09/13,13:00,0.659,0.932,0.602,1.148,0.819,0.381,0.666,0.627,�k�k��,7.8,�L
2020/09/13,13:10,0.660,0.934,0.600,1.149,0.817,0.381,0.666,0.625,�k,7.0,�L
2020/09/13,13:20,0.658,0.934,0.603,1.149,0.819,0.381,0.667,0.624,�k,8.9,�L
2020/09/13,13:30,0.658,0.933,0.601,1.150,0.817,0.382,0.665,0.626,�k,7.8,�L
2020/09/13,13:40,0.659,0.934,0.603,1.152,0.819,0.381,0.665,0.627,�k,7.6,�L
2020/09/13,13:50,0.659,0.931,0.602,1.152,0.818,0.380,0.665,0.628,�k,9.4,�L
2020/09/13,14:00,0.658,0.933,0.602,1.154,0.818,0.381,0.666,0.626,�k,10.5,�L
2020/09/13,14:10,0.658,0.935,0.601,1.152,0.818,0.381,0.666,0.626,�k,10.6,�L
2020/09/13,14:20,0.658,0.935,0.602,1.155,0.820,0.381,0.668,0.626,�k,8.8,�L
2020/09/13,14:30,0.655,0.931,0.603,1.153,0.818,0.381,0.665,0.626,�k,9.4,�L
2020/09/13,14:40,0.659,0.934,0.602,1.150,0.817,0.381,0.665,0.627,�k,9.1,�L
2020/09/13,14:50,0.659,0.932,0.600,1.154,0.817,0.381,0.666,0.627,�k,10.2,�L
2020/09/13,15:00,0.656,0.932,0.603,1.153,0.818,0.380,0.665,0.626,�k,10.0,�L
2020/09/13,15:10,0.657,0.931,0.602,1.151,0.817,0.382,0.666,0.625,�k,9.6,�L
2020/09/13,15:20,0.657,0.932,0.601,1.151,0.818,0.381,0.666,0.627,�k,9.5,�L
2020/09/13,15:30,0.655,0.931,0.600,1.151,0.817,0.382,0.666,0.627,�k,9.1,�L
2020/09/13,15:40,0.655,0.929,0.601,1.151,0.816,0.382,0.664,0.626,�k,8.5,�L
2020/09/13,15:50,0.654,0.925,0.598,1.148,0.812,0.381,0.663,0.626,�k,8.6,�L
2020/09/13,16:00,0.656,0.924,0.596,1.145,0.811,0.381,0.664,0.623,�k,9.6,�L
2020/09/13,16:10,0.656,0.919,0.595,1.143,0.811,0.381,0.662,0.625,�k,8.5,�L
2020/09/13,16:20,0.652,0.919,0.597,1.139,0.807,0.382,0.663,0.625,�k,8.5,�L
2020/09/13,16:30,0.652,0.917,0.594,1.137,0.808,0.380,0.662,0.623,�k,6.6,�L
2020/09/13,16:40,0.652,0.916,0.596,1.133,0.807,0.380,0.662,0.623,�k,7.8,�L
2020/09/13,16:50,0.650,0.916,0.594,1.133,0.805,0.381,0.660,0.621,�k,10.2,�L
2020/09/13,17:00,0.651,0.914,0.595,1.131,0.805,0.379,0.661,0.622,�k�k��,9.0,�L
2020/09/13,17:10,0.648,0.914,0.593,1.130,0.804,0.378,0.660,0.622,�k,8.4,�L
2020/09/13,17:20,0.648,0.913,0.594,1.128,0.805,0.379,0.660,0.621,�k,8.7,�L
2020/09/13,17:30,0.649,0.914,0.592,1.128,0.804,0.379,0.660,0.621,�k,7.8,�L
2020/09/13,17:40,0.647,0.910,0.591,1.126,0.802,0.378,0.661,0.621,�k�k��,8.1,�L
2020/09/13,17:50,0.646,0.910,0.591,1.124,0.801,0.378,0.659,0.622,�k,7.8,�L
2020/09/13,18:00,0.646,0.912,0.590,1.126,0.802,0.377,0.659,0.620,�k,7.7,�L
2020/09/13,18:10,0.647,0.910,0.590,1.125,0.802,0.377,0.658,0.619,�k�k��,7.8,�L
2020/09/13,18:20,0.646,0.911,0.592,1.125,0.801,0.376,0.660,0.621,�k�k��,8.0,�L
2020/09/13,18:30,0.645,0.911,0.589,1.125,0.801,0.379,0.658,0.621,�k�k��,8.3,�L
2020/09/13,18:40,0.645,0.910,0.590,1.124,0.802,0.377,0.657,0.619,�k�k��,6.9,�L
2020/09/13,18:50,0.646,0.912,0.589,1.125,0.800,0.377,0.658,0.620,�k�k��,7.7,�L
2020/09/13,19:00,0.647,0.911,0.590,1.126,0.802,0.377,0.658,0.618,�k�k��,7.6,�L
2020/09/13,19:10,0.644,0.909,0.590,1.124,0.801,0.377,0.658,0.620,�k�k��,7.4,�L
2020/09/13,19:20,0.644,0.908,0.591,1.124,0.800,0.377,0.659,0.621,�k�k��,7.7,�L
2020/09/13,19:30,0.645,0.908,0.590,1.125,0.800,0.378,0.658,0.621,�k�k��,6.1,�L
2020/09/13,19:40,0.645,0.910,0.588,1.123,0.801,0.376,0.657,0.618,�k�k��,7.3,�L
2020/09/13,19:50,0.645,0.910,0.590,1.125,0.802,0.377,0.658,0.619,�k�k��,6.6,�L
2020/09/13,20:00,0.644,0.910,0.591,1.127,0.801,0.378,0.658,0.619,�k�k��,8.0,�L
2020/09/13,20:10,0.645,0.912,0.591,1.127,0.801,0.375,0.658,0.619,�k�k��,8.6,�L
2020/09/13,20:20,0.645,0.910,0.589,1.124,0.800,0.376,0.658,0.620,�k�k��,8.2,�L
2020/09/13,20:30,0.645,0.909,0.589,1.126,0.802,0.376,0.655,0.620,�k�k��,9.1,�L
2020/09/13,20:40,0.645,0.908,0.588,1.125,0.801,0.376,0.656,0.621,�k�k��,9.2,�L
2020/09/13,20:50,0.645,0.909,0.589,1.127,0.799,0.377,0.656,0.621,�k�k��,9.2,�L
2020/09/13,21:00,0.646,0.909,0.589,1.123,0.799,0.377,0.658,0.621,�k�k��,8.5,�L
2020/09/13,21:10,0.643,0.910,0.588,1.123,0.800,0.376,0.658,0.621,�k�k��,9.1,�L
2020/09/13,21:20,0.644,0.908,0.590,1.124,0.801,0.378,0.657,0.620,�k�k��,8.4,�L
2020/09/13,21:30,0.643,0.908,0.587,1.125,0.799,0.378,0.657,0.619,�k�k��,8.9,�L
2020/09/13,21:40,0.644,0.910,0.588,1.123,0.799,0.377,0.658,0.622,�k�k��,8.4,�L
2020/09/13,21:50,0.643,0.909,0.590,1.123,0.799,0.377,0.656,0.619,�k��,7.7,�L
2020/09/13,22:00,0.643,0.910,0.587,1.126,0.799,0.377,0.657,0.620,�k�k��,8.5,�L
2020/09/13,22:10,0.645,0.908,0.589,1.125,0.800,0.377,0.657,0.619,�k��,7.5,�L
2020/09/13,22:20,0.645,0.914,0.589,1.124,0.799,0.377,0.659,0.621,�k�k��,8.2,�L
2020/09/13,22:30,0.646,0.913,0.591,1.126,0.800,0.377,0.658,0.623,�k�k��,7.7,�L
2020/09/13,22:40,0.644,0.912,0.592,1.128,0.801,0.378,0.658,0.621,�k�k��,9.5,�L
2020/09/13,22:50,0.645,0.911,0.591,1.129,0.802,0.377,0.656,0.621,�k�k��,9.4,�L
2020/09/13,23:00,0.646,0.914,0.591,1.130,0.803,0.378,0.659,0.621,�k�k��,10.0,�L
2020/09/13,23:10,0.645,0.915,0.592,1.128,0.804,0.377,0.658,0.621,�k�k��,8.9,�L
2020/09/13,23:20,0.647,0.915,0.591,1.129,0.806,0.379,0.660,0.621,�k�k��,8.9,�L
2020/09/13,23:30,0.647,0.915,0.592,1.130,0.805,0.379,0.659,0.622,�k�k��,8.3,��
2020/09/13,23:40,0.648,0.915,0.594,1.131,0.803,0.377,0.659,0.620,�k�k��,8.7,��
2020/09/13,23:50,0.650,0.915,0.594,1.132,0.804,0.378,0.659,0.621,�k�k��,9.5,��
